Tracking 18942 objects as of 17-Jan-2018
HD Live streaming from Space Station
objects crossing your sky now

APRIZESAT 2

Track APRIZESAT 2 now!
10-day predictions
APRIZESAT 2 is classified as:


NORAD ID: 28366
Int'l Code: 2004-025A
Perigee: 699.2 km
Apogee: 854.4 km
Inclination: 98.3 °
Period: 100.2 minutes
Semi major axis: 7147 km
RCS: 0.0567 m2 (small)
Launch date: June 29, 2004
Source: United States (US)
Launch site: TYURATAM MISSILE AND SPACE COMPLEX (TTMTR)

Messaging services.
aabbcc
Your satellite tracking list
Your tracking list is empty




NASA's NSSDC Master Catalog

Two Line Element Set (TLE):
1 28366U 04025A   18016.74422629 -.00000008 +00000-0 +11107-4 0  9991
2 28366 098.3337 288.8894 0108621 130.7767 230.2908 14.36628873710253
Source of the keplerian elements: AFSPC